Погода в Тобольске

Россия / Тюменская область     58°12′06″N   68°15′13″E
темп.,
°C
ветер,
м/с
пор.,
м/с
влажн.,
%
обл.,
%
осадки,
мм/ч
давл.,
гПа
погр.,
м
14 мая, пт
пт1423:00+13всв35535 0.0 102570
02:00+10юв33675 0.0 102647
05:00+10ююв34705 0.0 102774
08:00+16ююз454999 0.0 1026373
11:00+23ююз563473 0.0 1024878
14:00+27зюз6930100 0.0 10222579
17:00+29з6102699 0.0 10203161
20:00+24зюз494097 0.1 1019163
15 мая, сб
сб1523:00+20з344811 0.1 101860
02:00+18з355910 0.1 101872
05:00+17зюз226358 0.1 101828
08:00+22зюз475064 0.3 1018366
11:00+28з68344 0.3 10171581
14:00+30з69269 0.0 10153212
17:00+30з710255 0.0 10133091
20:00+18ссв7106899 0.3 1015315
16 мая, вс
вс1623:00+16сз347852 1.1 1016101
02:00+15зюз338571 0.0 101553
05:00+15з238583 0.0 101669
08:00+20зюз356078 0.0 1016368
11:00+27зюз693652 0.0 10141815
14:00+30зсз8122831 0.0 10122730
17:00+30сз713255 0.0 10123172
20:00+25з233711 0.0 101218
17 мая, пн
пн1723:00+21зюз3544100 0.0 101275
02:00+19з4850100 0.0 1013127
05:00+17зюз34595 0.0 101366
08:00+23з594191 0.0 1013500
11:00+28з6103193 0.0 10121654
14:00+30з8122391 0.0 10113865
17:00+31з9121974 0.0 10083844
20:00+17всв7117973 0.8 1010280
18 мая, вт
вт1823:00+16ююв238894 1.1 101158
02:00+16юз3386100 0.0 101156
05:00+16зсз248016 0.0 1011111
08:00+20зсз466123 0.0 1010726
11:00+19сз576647 2.6 1010628
14:00+19ссз786398 2.5 10101381
17:00+16с8968100 3.1 10121154
20:00+11ссв6981100 0.1 1015907